When you browse on this site, cookies collect data to enhance your experience and personalize the content and advertising you see.
Visit our Privacy Policy to learn more. By continuing to use the site, you agree to this use of cookies and data.
  • In Hungary
  • List of Countries
  • For 7 days
  • Water Temperature
  • Weather Map
  • News
  • Weather Widgets
  • user-avatar
    Login

    Hourly Weather Sedansk

    Today, 10 December, Tuesday

    Time Temperature Precipitation Wind Pressure Humidity
    00:00 +3°C° 0 mm 3 mps 741 mmHg 91%
    01:00 +2°C° 0 mm 3 mps 741 mmHg 92%
    02:00 +2°C° 0 mm 3 mps 741 mmHg 91%
    03:00 +2°C° 0 mm 3 mps 741 mmHg 91%
    04:00 +2°C° 0 mm 3 mps 742 mmHg 91%
    05:00 +3°C° 0.1 mm 4 mps 742 mmHg 89%
    06:00 +3°C° 0.1 mm 4 mps 743 mmHg 87%
    07:00 +2°C° 0 mm 5 mps 743 mmHg 86%
    08:00 +2°C° 0 mm 5 mps 744 mmHg 82%
    09:00 +2°C° 0 mm 6 mps 745 mmHg 78%
    10:00 +1°C° 0 mm 6 mps 745 mmHg 74%
    11:00 +1°C° 0.1 mm 6 mps 746 mmHg 80%
    12:00 +1°C° 0.1 mm 6 mps 747 mmHg 87%
    13:00 +1°C° 0 mm 5 mps 748 mmHg 94%
    14:00 +1°C° 0.2 mm 6 mps 748 mmHg 91%
    15:00 +1°C° 0.2 mm 6 mps 749 mmHg 89%
    16:00 +1°C° 0.2 mm 6 mps 749 mmHg 87%
    17:00 -1°C° 0 mm 6 mps 750 mmHg 83%
    18:00 0°C° 0 mm 5 mps 751 mmHg 79%
    19:00 -1°C° 0 mm 4 mps 752 mmHg 76%
    20:00 -1°C° 0 mm 4 mps 752 mmHg 78%
    21:00 -1°C° 0 mm 3 mps 752 mmHg 81%
    22:00 -2°C° 0 mm 2 mps 753 mmHg 83%
    23:00 -2°C° 0 mm 2 mps 753 mmHg 83%

    Tomorrow, 11 December, Wednesday

    Time Temperature Precipitation Wind Pressure Humidity
    00:00 -2°C° 0 mm 2 mps 753 mmHg 83%
    01:00 -2°C° 0 mm 2 mps 754 mmHg 83%
    02:00 -2°C° 0 mm 2 mps 753 mmHg 81%
    03:00 0°C° 0 mm 1 mps 753 mmHg 80%
    04:00 0°C° 0 mm 1 mps 753 mmHg 79%
    05:00 -2°C° 0 mm 2 mps 753 mmHg 77%
    06:00 -2°C° 0 mm 2 mps 752 mmHg 76%
    07:00 -2°C° 0 mm 3 mps 752 mmHg 74%
    08:00 -2°C° 0 mm 3 mps 752 mmHg 71%
    09:00 -2°C° 0 mm 3 mps 752 mmHg 68%
    10:00 -2°C° 0 mm 4 mps 751 mmHg 64%
    11:00 -2°C° 0 mm 4 mps 751 mmHg 62%
    12:00 -1°C° 0 mm 4 mps 750 mmHg 59%
    13:00 -1°C° 0 mm 4 mps 750 mmHg 56%
    14:00 -2°C° 0 mm 4 mps 749 mmHg 58%
    15:00 -1°C° 0 mm 3 mps 749 mmHg 61%
    16:00 -2°C° 0 mm 3 mps 748 mmHg 63%
    17:00 -3°C° 0 mm 4 mps 748 mmHg 66%
    18:00 -3°C° 0 mm 4 mps 748 mmHg 69%
    19:00 -3°C° 0 mm 4 mps 748 mmHg 72%
    20:00 -3°C° 0 mm 4 mps 748 mmHg 76%
    21:00 -3°C° 0 mm 4 mps 747 mmHg 80%
    22:00 -3°C° 0 mm 4 mps 747 mmHg 83%
    23:00 -4°C° 0 mm 4 mps 746 mmHg 84%

    Day after tomorrow, 12 December, Thursday

    Time Temperature Precipitation Wind Pressure Humidity
    00:00 -4°C° 0 mm 4 mps 746 mmHg 85%
    01:00 -4°C° 0 mm 4 mps 746 mmHg 85%
    02:00 -3°C° 0 mm 4 mps 745 mmHg 85%
    03:00 -3°C° 0 mm 4 mps 744 mmHg 85%
    04:00 -2°C° 0 mm 4 mps 743 mmHg 84%
    05:00 -2°C° 0 mm 4 mps 743 mmHg 87%
    06:00 -1°C° 0 mm 3 mps 743 mmHg 90%
    07:00 -1°C° 0 mm 3 mps 743 mmHg 93%
    08:00 -2°C° 0 mm 4 mps 743 mmHg 87%
    09:00 -2°C° 0 mm 4 mps 742 mmHg 81%
    10:00 -1°C° 0 mm 5 mps 742 mmHg 75%
    11:00 -1°C° 0 mm 5 mps 742 mmHg 71%
    12:00 -1°C° 0 mm 5 mps 742 mmHg 67%
    13:00 -1°C° 0 mm 5 mps 742 mmHg 62%
    14:00 -1°C° 0 mm 4 mps 742 mmHg 64%
    15:00 -2°C° 0 mm 4 mps 742 mmHg 65%
    16:00 -1°C° 0 mm 3 mps 741 mmHg 67%
    17:00 -1°C° 0 mm 3 mps 741 mmHg 73%
    18:00 -1°C° 0 mm 3 mps 741 mmHg 79%
    19:00 -1°C° 0 mm 3 mps 741 mmHg 85%
    20:00 -1°C° 0 mm 3 mps 740 mmHg 88%
    21:00 -1°C° 0 mm 3 mps 740 mmHg 92%
    22:00 0°C° 0 mm 3 mps 740 mmHg 95%
    23:00 0°C° 0.1 mm 3 mps 739 mmHg 95%

    13 December, Friday

    Time Temperature Precipitation Wind Pressure Humidity
    00:00 0°C° 0.1 mm 3 mps 738 mmHg 95%
    01:00 -1°C° 0.1 mm 4 mps 737 mmHg 96%
    02:00 0°C° 0.3 mm 4 mps 737 mmHg 96%
    03:00 0°C° 0.3 mm 4 mps 736 mmHg 96%
    04:00 0°C° 0.3 mm 4 mps 735 mmHg 97%
    05:00 0°C° 0.3 mm 4 mps 735 mmHg 97%
    06:00 0°C° 0.3 mm 4 mps 734 mmHg 97%
    07:00 0°C° 0.3 mm 4 mps 734 mmHg 96%
    08:00 0°C° 0 mm 4 mps 733 mmHg 95%
    09:00 0°C° 0 mm 4 mps 733 mmHg 94%
    10:00 0°C° 0 mm 4 mps 733 mmHg 93%
    11:00 +1°C° 0 mm 4 mps 733 mmHg 92%
    12:00 +1°C° 0 mm 4 mps 732 mmHg 91%
    13:00 +1°C° 0 mm 4 mps 732 mmHg 89%
    14:00 +1°C° 0 mm 4 mps 732 mmHg 89%
    15:00 +1°C° 0 mm 3 mps 732 mmHg 88%
    16:00 +1°C° 0 mm 3 mps 731 mmHg 88%
    17:00 0°C° 0 mm 4 mps 732 mmHg 87%
    18:00 0°C° 0 mm 4 mps 732 mmHg 86%
    19:00 0°C° 0 mm 4 mps 732 mmHg 86%
    20:00 0°C° 0 mm 4 mps 732 mmHg 87%
    21:00 0°C° 0 mm 4 mps 732 mmHg 88%
    22:00 0°C° 0 mm 4 mps 732 mmHg 89%
    23:00 0°C° 0 mm 4 mps 732 mmHg 89%

    14 December, Saturday

    Time Temperature Precipitation Wind Pressure Humidity
    00:00 -1°C° 0 mm 4 mps 732 mmHg 89%
    01:00 -1°C° 0 mm 4 mps 732 mmHg 89%
    02:00 -1°C° 0 mm 4 mps 733 mmHg 89%
    03:00 -1°C° 0 mm 4 mps 733 mmHg 90%
    04:00 -1°C° 0 mm 4 mps 733 mmHg 90%
    05:00 -1°C° 0 mm 4 mps 733 mmHg 88%
    06:00 -1°C° 0 mm 5 mps 733 mmHg 87%
    07:00 -1°C° 0 mm 5 mps 733 mmHg 85%
    08:00 -1°C° 0 mm 5 mps 733 mmHg 83%
    09:00 0°C° 0 mm 5 mps 733 mmHg 81%
    10:00 -1°C° 0 mm 6 mps 733 mmHg 79%
    11:00 +1°C° 0 mm 6 mps 733 mmHg 77%
    12:00 +1°C° 0 mm 6 mps 732 mmHg 76%
    13:00 0°C° 0 mm 7 mps 732 mmHg 75%
    14:00 0°C° 0 mm 7 mps 732 mmHg 76%
    15:00 0°C° 0 mm 7 mps 732 mmHg 77%
    16:00 0°C° 0 mm 7 mps 732 mmHg 78%
    17:00 0°C° 0.2 mm 7 mps 732 mmHg 83%
    18:00 0°C° 0.2 mm 7 mps 732 mmHg 87%
    19:00 0°C° 0.2 mm 7 mps 732 mmHg 92%
    20:00 +1°C° 0 mm 6 mps 733 mmHg 86%
    21:00 +1°C° 0 mm 6 mps 733 mmHg 79%
    22:00 +1°C° 0 mm 6 mps 734 mmHg 73%
    23:00 +1°C° 0 mm 6 mps 734 mmHg 76%

    15 December, Sunday

    Time Temperature Precipitation Wind Pressure Humidity
    00:00 +1°C° 0 mm 6 mps 734 mmHg 78%
    01:00 +1°C° 0 mm 6 mps 734 mmHg 81%
    02:00 0°C° 0.4 mm 7 mps 735 mmHg 79%
    03:00 0°C° 0.4 mm 8 mps 735 mmHg 77%
    04:00 +1°C° 0.4 mm 8 mps 735 mmHg 76%
    05:00 0°C° 0 mm 8 mps 736 mmHg 73%
    06:00 0°C° 0 mm 8 mps 737 mmHg 71%
    07:00 -1°C° 0 mm 7 mps 738 mmHg 68%
    08:00 -1°C° 0 mm 7 mps 739 mmHg 68%
    09:00 0°C° 0 mm 7 mps 739 mmHg 69%
    10:00 +1°C° 0 mm 6 mps 740 mmHg 69%
    11:00 +1°C° 0 mm 6 mps 740 mmHg 67%
    12:00 +2°C° 0 mm 6 mps 740 mmHg 66%
    13:00 +2°C° 0 mm 5 mps 740 mmHg 64%
    14:00 +2°C° 0 mm 5 mps 739 mmHg 71%
    15:00 +2°C° 0 mm 6 mps 738 mmHg 79%
    16:00 +2°C° 0 mm 6 mps 737 mmHg 86%
    17:00 +3°C° 0.7 mm 7 mps 737 mmHg 81%
    18:00 +3°C° 0.7 mm 9 mps 737 mmHg 76%
    19:00 +6°C° 0.7 mm 10 mps 737 mmHg 71%
    20:00 +3°C° 0 mm 9 mps 738 mmHg 69%
    21:00 +2°C° 0 mm 8 mps 740 mmHg 68%
    22:00 +2°C° 0 mm 7 mps 741 mmHg 66%
    23:00 +2°C° 0 mm 7 mps 742 mmHg 68%
    Show more